Flag for U.S.A. Weather past 2 weeks in Carson City, Nevada, U.S.A.

Now
53 °F

Clear.


Feels Like: 53 °F
Forecast: 30 / 74 °F
Wind: No wind

Location: Reno Tahoe International Airport

Current Time: Oct 1, 2014 at 10:39:54 PM

Latest Report: Oct 1, 2014 at 9:55 PM


Visibility: 10 mi

Pressure: 30.14 "Hg

Humidity: 41%

Dew point: 30 °F

Location of Carson CityLocation

Historic Weather in Carson City — Graph

°F

Carson City temperature yesterday

Maximum temperature yesterday: 71 °F (at 2:55 PM)
Minimum temperature yesterday: 47 °F (at 5:55 AM)
Average temperature yesterday: 59 °F

Past Weeks' High & Low Weather Summary

 TemperatureHumidityPressure
High90 °F (Sep 17, 1:55 PM)96% (Sep 28, 6:55 AM)30.13 "Hg (Sep 28, 6:55 AM)
Low43 °F (Oct 1, 5:55 AM)7% (Sep 24, 1:55 PM)29.65 "Hg (Sep 17, 4:55 PM)
Average64 °F45%29.89 "Hg
* Reported Sep 16 8:55 PM — Oct 1 8:55 PM, Carson City, Weather by CustomWeather, © 2014

Note: Actual official high and low records may vary slightly from our data, if they occured in-between our weather recording intervals... More about our weather records

Advertising

Carson City weather history for previous 24 hours

 ConditionsComfort  
Time TempWeatherWind HumidityBarometerVisibility
8:55 PM
Oct 1
56 °FClear.3 mph30%30.13 "Hg10 mi
7:55 PM57 °FClear.3 mph31%30.12 "Hg10 mi
6:55 PM60 °FPassing clouds.6 mph25%30.10 "Hg10 mi
5:55 PM63 °FPassing clouds.5 mph23%30.07 "Hg10 mi
4:55 PM66 °FPassing clouds.9 mph21%30.05 "Hg10 mi
3:55 PM66 °FPassing clouds.10 mph23%30.05 "Hg10 mi
2:55 PM66 °FPassing clouds.N/A22%30.06 "Hg10 mi
1:55 PM64 °FSunny.9 mph23%30.07 "Hg10 mi
12:55 PM61 °FSunny.5 mph27%30.09 "Hg10 mi
11:55 AM60 °FSunny.9 mph30%30.10 "Hg10 mi
10:55 AM58 °FSunny.8 mph35%30.10 "Hg10 mi
9:55 AM56 °FSunny.8 mph37%30.11 "Hg10 mi
8:55 AM50 °FSunny.3 mph54%30.12 "Hg10 mi
7:55 AM44 °FSunny.No wind71%30.11 "Hg10 mi
6:55 AM43 °FClear.No wind71%30.09 "Hg10 mi
5:55 AM43 °FClear.No wind71%30.06 "Hg10 mi
4:55 AM44 °FClear.3 mph68%30.04 "Hg10 mi
3:55 AM45 °FClear.No wind65%30.03 "Hg10 mi
2:55 AM47 °FClear.3 mph61%30.01 "Hg10 mi
1:55 AM50 °FClear.No wind54%30.01 "Hg10 mi
12:55 AM52 °FClear.3 mph50%29.99 "Hg10 mi
11:55 PM
Sep 30
54 °FPassing clouds.3 mph45%29.98 "Hg10 mi
10:55 PM56 °FPassing clouds.8 mph46%29.97 "Hg10 mi
Weather by CustomWeather, © 2014

See weather overviewHow to use our weather pages